| time (UTC) | temp F | wind direction | speed MPH | gust MPH | rain 1hr in | rain 24hr in | rain mn in | humidity % | barometer mb |
| 20260503211927 | 71 | 281 | 15.0 | 26.0 | 0.00 | 0.00 | 0.00 | 33 | 1004.2 |
| 20260503211424 | 71 | 293 | 11.0 | 21.0 | 0.00 | 0.00 | 0.00 | 33 | 1004.2 |
| 20260503210919 | 71 | 285 | 9.0 | 20.0 | 0.00 | 0.00 | 0.00 | 35 | 1004.3 |
| 20260503210416 | 71 | 291 | 20.0 | 33.0 | 0.00 | 0.00 | 0.00 | 36 | 1004.3 |
| 20260503205910 | 70 | 36 | 9.0 | 21.0 | 0.00 | 0.00 | 0.00 | 34 | 1004.4 |
| 20260503205408 | 70 | 288 | 10.0 | 25.0 | 0.00 | 0.00 | 0.00 | 35 | 1004.6 |
| 20260503204904 | 71 | 312 | 22.0 | 31.0 | 0.00 | 0.00 | 0.00 | 31 | 1004.6 |
| 20260503204401 | 71 | 310 | 13.0 | 17.0 | 0.00 | 0.00 | 0.00 | 33 | 1004.6 |
| 20260503203859 | 70 | 327 | 15.0 | 18.0 | 0.00 | 0.00 | 0.00 | 33 | 1004.5 |
| 20260503203356 | 70 | 309 | 19.0 | 41.0 | 0.00 | 0.00 | 0.00 | 33 | 1004.4 |
| 20260503202852 | 70 | 333 | 10.0 | 27.0 | 0.00 | 0.00 | 0.00 | 35 | 1004.9 |
| 20260503202351 | 70 | 318 | 17.0 | 24.0 | 0.00 | 0.00 | 0.00 | 36 | 1004.8 |
| 20260503201849 | 70 | 287 | 21.0 | 25.0 | 0.00 | 0.00 | 0.00 | 35 | 1004.7 |
| 20260503201345 | 70 | 292 | 17.0 | 22.0 | 0.00 | 0.00 | 0.00 | 35 | 1004.8 |
| 20260503200843 | 70 | 283 | 10.0 | 17.0 | 0.00 | 0.00 | 0.00 | 34 | 1004.9 |
| 20260503200338 | 70 | 279 | 10.0 | 21.0 | 0.00 | 0.00 | 0.00 | 34 | 1005.1 |
| 20260503195836 | 71 | 298 | 12.0 | 22.0 | 0.00 | 0.00 | 0.00 | 34 | 1004.9 |
| 20260503195332 | 70 | 272 | 10.0 | 16.0 | 0.00 | 0.00 | 0.00 | 35 | 1004.8 |
| 20260503194830 | 70 | 296 | 17.0 | 23.0 | 0.00 | 0.00 | 0.00 | 35 | 1005.0 |
| 20260503194326 | 70 | 344 | 21.0 | 26.0 | 0.00 | 0.00 | 0.00 | 35 | 1004.9 |
| 20260503193822 | 70 | 265 | 7.0 | 21.0 | 0.00 | 0.00 | 0.00 | 35 | 1004.8 |
| 20260503193318 | 70 | 330 | 11.0 | 24.0 | 0.00 | 0.00 | 0.00 | 35 | 1005.0 |
| 20260503192814 | 70 | 278 | 13.0 | 24.0 | 0.00 | 0.00 | 0.00 | 36 | 1004.9 |
| 20260503192310 | 70 | 259 | 8.0 | 14.0 | 0.00 | 0.00 | 0.00 | 37 | 1004.9 |
| 20260503191806 | 69 | 307 | 10.0 | 14.0 | 0.00 | 0.00 | 0.00 | 36 | 1005.0 |
| 20260503191303 | 69 | 293 | 7.0 | 14.0 | 0.00 | 0.00 | 0.00 | 38 | 1005.2 |
| 20260503190800 | 69 | 318 | 3.0 | 7.0 | 0.00 | 0.00 | 0.00 | 39 | 1005.0 |
| 20260503190257 | 69 | 324 | 15.0 | 20.0 | 0.00 | 0.00 | 0.00 | 38 | 1005.2 |
| 20260503185754 | 69 | 339 | 9.0 | 13.0 | 0.00 | 0.00 | 0.00 | 40 | 1005.2 |
| 20260503185250 | 69 | 279 | 11.0 | 16.0 | 0.00 | 0.00 | 0.00 | 39 | 1005.3 |
| 20260503184744 | 68 | 259 | 6.0 | 13.0 | 0.00 | 0.00 | 0.00 | 40 | 1005.2 |
| 20260503184241 | 69 | 287 | 9.0 | 13.0 | 0.00 | 0.00 | 0.00 | 39 | 1005.3 |
| 20260503183737 | 68 | 293 | 12.0 | 14.0 | 0.00 | 0.00 | 0.00 | 41 | 1005.5 |
| 20260503183235 | 68 | 254 | 7.0 | 8.0 | 0.00 | 0.00 | 0.00 | 41 | 1005.4 |
| 20260503182732 | 67 | 312 | 2.0 | 10.0 | 0.00 | 0.00 | 0.00 | 41 | 1005.2 |
| 20260503182231 | 68 | 282 | 11.0 | 11.0 | 0.00 | 0.00 | 0.00 | 40 | 1005.5 |
| 20260503181728 | 68 | 269 | 5.0 | 11.0 | 0.00 | 0.00 | 0.00 | 40 | 1005.4 |
| 20260503181225 | 68 | 324 | 4.0 | 6.0 | 0.00 | 0.00 | 0.00 | 41 | 1005.5 |
| 20260503180721 | 67 | 300 | 7.0 | 14.0 | 0.00 | 0.00 | 0.00 | 41 | 1005.6 |
| 20260503180219 | 67 | 268 | 9.0 | 13.0 | 0.00 | 0.00 | 0.00 | 41 | 1005.7 |
| 20260503175715 | 67 | 317 | 8.0 | 11.0 | 0.00 | 0.00 | 0.00 | 42 | 1005.8 |
| 20260503175214 | 66 | 298 | 5.0 | 7.0 | 0.00 | 0.00 | 0.00 | 43 | 1005.8 |
| 20260503174709 | 66 | 280 | 6.0 | 9.0 | 0.00 | 0.00 | 0.00 | 44 | 1005.9 |
| 20260503174207 | 66 | 228 | 4.0 | 8.0 | 0.00 | 0.00 | 0.00 | 43 | 1005.8 |
| 20260503173707 | 65 | 237 | 1.0 | 7.0 | 0.00 | 0.00 | 0.00 | 43 | 1005.9 |
| 20260503173204 | 66 | 303 | 8.0 | 13.0 | 0.00 | 0.00 | 0.00 | 43 | 1005.8 |
| 20260503172701 | 65 | 294 | 10.0 | 13.0 | 0.00 | 0.00 | 0.00 | 43 | 1005.8 |
| 20260503172158 | 65 | 261 | 5.0 | 9.0 | 0.00 | 0.00 | 0.00 | 43 | 1005.9 |
| 20260503171654 | 65 | 292 | 8.0 | 13.0 | 0.00 | 0.00 | 0.00 | 43 | 1006.2 |
| 20260503171152 | 64 | 280 | 13.0 | 24.0 | 0.00 | 0.00 | 0.00 | 44 | 1006.2 |
| 20260503170649 | 65 | 284 | 11.0 | 16.0 | 0.00 | 0.00 | 0.00 | 43 | 1006.3 |
| 20260503170145 | 64 | 272 | 11.0 | 13.0 | 0.00 | 0.00 | 0.00 | 43 | 1006.2 |
| 20260503160107 | 62 | 297 | 4.0 | 7.0 | 0.00 | 0.00 | 0.00 | 45 | 1006.3 |
| 20260503150537 | 61 | 285 | 8.0 | 11.0 | 0.00 | 0.00 | 0.00 | 46 | 1006.3 |
| 20260503130927 | 58 | 182 | 3.0 | 8.0 | 0.00 | 0.00 | 0.00 | 53 | 1006.7 |
| 20260503130424 | 58 | 200 | 2.0 | 5.0 | 0.00 | 0.00 | 0.00 | 52 | 1006.7 |
| 20260503110823 | 50 | 170 | 4.0 | 5.0 | 0.00 | 0.00 | 0.00 | 69 | 1007.0 |
| 20260503110320 | 50 | 164 | 3.0 | 3.0 | 0.00 | 0.00 | 0.00 | 70 | 1007.1 |
| 20260503100246 | 51 | 165 | 5.0 | 6.0 | 0.00 | 0.00 | 0.00 | 64 | 1007.1 |
| 20260503090206 | 53 | 165 | 2.0 | 2.0 | 0.00 | 0.00 | 0.00 | 55 | 1007.7 |
| 20260503081636 | 54 | 203 | 2.0 | 5.0 | 0.00 | 0.00 | 0.00 | 54 | 1008.1 |
| 20260503081133 | 54 | 208 | 3.0 | 3.0 | 0.00 | 0.00 | 0.00 | 54 | 1008.3 |
| 20260503080629 | 54 | 210 | 2.0 | 6.0 | 0.00 | 0.00 | 0.00 | 53 | 1008.2 |
| 20260503080126 | 55 | 199 | 1.0 | 2.0 | 0.00 | 0.00 | 0.00 | 53 | 1008.3 |
| 20260503072602 | 55 | 224 | 2.0 | 5.0 | 0.00 | 0.00 | 0.00 | 54 | 1008.4 |
| 20260503072100 | 55 | 199 | 2.0 | 6.0 | 0.00 | 0.00 | 0.00 | 54 | 1008.4 |
| 20260503071556 | 55 | 201 | 3.0 | 5.0 | 0.00 | 0.00 | 0.00 | 55 | 1008.5 |
| 20260503071053 | 54 | 205 | 3.0 | 6.0 | 0.00 | 0.00 | 0.00 | 56 | 1008.7 |
| 20260503070549 | 54 | 216 | 4.0 | 5.0 | 0.00 | 0.00 | 0.00 | 57 | 1008.6 |
| 20260503055003 | 58 | 237 | 0.0 | 3.0 | 0.00 | 0.00 | 0.00 | 53 | 1010.1 |
| 20260503054459 | 57 | 243 | 3.0 | 7.0 | 0.00 | 0.00 | 0.00 | 53 | 1010.3 |
| 20260503053956 | 57 | 307 | 5.0 | 5.0 | 0.00 | 0.00 | 0.00 | 53 | 1010.2 |
| 20260503053454 | 57 | 249 | 1.0 | 3.0 | 0.00 | 0.00 | 0.00 | 51 | 1010.3 |
| 20260503052951 | 58 | 238 | 2.0 | 3.0 | 0.00 | 0.00 | 0.00 | 50 | 1010.3 |
| 20260503052448 | 58 | 246 | 2.0 | 3.0 | 0.00 | 0.00 | 0.00 | 50 | 1010.4 |
| 20260503051944 | 58 | 236 | 2.0 | 2.0 | 0.00 | 0.00 | 0.00 | 50 | 1010.4 |
| 20260503051440 | 58 | 221 | 3.0 | 5.0 | 0.00 | 0.00 | 0.00 | 50 | 1010.3 |
| 20260503050938 | 58 | 225 | 1.0 | 3.0 | 0.00 | 0.00 | 0.00 | 49 | 1010.3 |
| 20260503050433 | 58 | 251 | 2.0 | 3.0 | 0.00 | 0.00 | 0.00 | 49 | 1010.2 |
| 20260503045932 | 58 | 237 | 2.0 | 6.0 | 0.00 | 0.00 | 0.00 | 49 | 1010.4 |
| 20260503045429 | 58 | 237 | 5.0 | 8.0 | 0.00 | 0.00 | 0.00 | 48 | 1010.5 |
| 20260503044925 | 58 | 211 | 4.0 | 6.0 | 0.00 | 0.00 | 0.00 | 48 | 1010.2 |
| 20260503044422 | 58 | 219 | 4.0 | 6.0 | 0.00 | 0.00 | 0.00 | 48 | 1010.3 |
| 20260503043920 | 58 | 219 | 3.0 | 7.0 | 0.00 | 0.00 | 0.00 | 47 | 1010.6 |
| 20260503043416 | 58 | 217 | 2.0 | 5.0 | 0.00 | 0.00 | 0.00 | 47 | 1010.5 |
| 20260503042913 | 58 | 236 | 3.0 | 5.0 | 0.00 | 0.00 | 0.00 | 47 | 1010.7 |
| 20260503042409 | 58 | 209 | 3.0 | 7.0 | 0.00 | 0.00 | 0.00 | 47 | 1010.7 |
| 20260503041906 | 58 | 189 | 1.0 | 3.0 | 0.00 | 0.00 | 0.00 | 47 | 1010.6 |
| 20260503041403 | 58 | 244 | 3.0 | 3.0 | 0.00 | 0.00 | 0.00 | 47 | 1010.7 |
| 20260503040900 | 58 | 210 | 2.0 | 3.0 | 0.00 | 0.00 | 0.00 | 48 | 1010.7 |
| 20260503040358 | 58 | 214 | 4.0 | 5.0 | 0.00 | 0.00 | 0.00 | 47 | 1011.0 |
| 20260503035854 | 58 | 199 | 2.0 | 3.0 | 0.00 | 0.00 | 0.00 | 46 | 1010.9 |
| 20260503035351 | 58 | 215 | 1.0 | 3.0 | 0.00 | 0.00 | 0.00 | 46 | 1011.1 |
| 20260503034848 | 58 | 239 | 1.0 | 3.0 | 0.00 | 0.00 | 0.00 | 46 | 1011.0 |
| 20260503034346 | 58 | 228 | 1.0 | 3.0 | 0.00 | 0.00 | 0.00 | 46 | 1011.0 |
| 20260503033843 | 57 | 228 | 2.0 | 3.0 | 0.00 | 0.00 | 0.00 | 47 | 1011.2 |
| 20260503033341 | 56 | 202 | 2.0 | 3.0 | 0.00 | 0.00 | 0.00 | 48 | 1011.3 |
| 20260503032838 | 56 | 193 | 1.0 | 2.0 | 0.00 | 0.00 | 0.00 | 49 | 1011.4 |
| 20260503032337 | 56 | 216 | 0.0 | 1.0 | 0.00 | 0.00 | 0.00 | 49 | 1011.5 |
| 20260503031834 | 56 | 226 | 0.0 | 1.0 | 0.00 | 0.00 | 0.00 | 48 | 1011.7 |
| 20260503031332 | 56 | 252 | 2.0 | 3.0 | 0.00 | 0.00 | 0.00 | 48 | 1011.6 |
| 20260503030828 | 57 | 245 | 1.0 | 3.0 | 0.00 | 0.00 | 0.00 | 48 | 1011.5 |
| 20260503030325 | 57 | 249 | 2.0 | 2.0 | 0.00 | 0.00 | 0.00 | 48 | 1011.6 |
| 20260503025821 | 57 | 236 | 3.0 | 3.0 | 0.00 | 0.00 | 0.00 | 46 | 1011.8 |
| 20260503025319 | 57 | 193 | 2.0 | 3.0 | 0.00 | 0.00 | 0.00 | 46 | 1011.7 |
| 20260503024815 | 57 | 247 | 2.0 | 3.0 | 0.00 | 0.00 | 0.00 | 46 | 1011.7 |
| 20260503024312 | 57 | 217 | 1.0 | 2.0 | 0.00 | 0.00 | 0.00 | 46 | 1011.9 |
| 20260503023809 | 57 | 210 | 1.0 | 2.0 | 0.00 | 0.00 | 0.00 | 46 | 1011.7 |
| 20260503023307 | 57 | 217 | 1.0 | 2.0 | 0.00 | 0.00 | 0.00 | 45 | 1011.6 |
| 20260503022803 | 57 | 214 | 0.0 | 2.0 | 0.00 | 0.00 | 0.00 | 45 | 1011.9 |
| 20260503022304 | 57 | 217 | 0.0 | 1.0 | 0.00 | 0.00 | 0.00 | 45 | 1011.8 |
| 20260503021759 | 57 | 220 | 0.0 | 1.0 | 0.00 | 0.00 | 0.00 | 45 | 1011.7 |
| 20260503021255 | 57 | 213 | 0.0 | 1.0 | 0.00 | 0.00 | 0.00 | 45 | 1011.8 |
| 20260503020754 | 57 | 220 | 1.0 | 1.0 | 0.00 | 0.00 | 0.00 | 45 | 1011.8 |
| 20260503020251 | 57 | 207 | 1.0 | 1.0 | 0.00 | 0.00 | 0.00 | 45 | 1011.8 |
| 20260503015747 | 57 | 206 | 0.0 | 2.0 | 0.00 | 0.00 | 0.00 | 45 | 1011.9 |
| 20260503015244 | 57 | 203 | 1.0 | 2.0 | 0.00 | 0.00 | 0.00 | 45 | 1011.7 |
| 20260503014739 | 57 | 198 | 1.0 | 2.0 | 0.00 | 0.00 | 0.00 | 44 | 1011.7 |
| 20260503014238 | 57 | 200 | 1.0 | 3.0 | 0.00 | 0.00 | 0.00 | 44 | 1011.8 |
| 20260503013735 | 58 | 196 | 1.0 | 2.0 | 0.00 | 0.00 | 0.00 | 44 | 1011.9 |
| 20260503013232 | 58 | 199 | 2.0 | 3.0 | 0.00 | 0.00 | 0.00 | 44 | 1011.9 |
| 20260503012730 | 58 | 195 | 2.0 | 3.0 | 0.00 | 0.00 | 0.00 | 43 | 1011.8 |
| 20260503012227 | 58 | 207 | 0.0 | 2.0 | 0.00 | 0.00 | 0.00 | 44 | 1012.0 |
| 20260503011723 | 58 | 201 | 2.0 | 2.0 | 0.00 | 0.00 | 0.00 | 43 | 1012.0 |
| 20260503011220 | 59 | 198 | 3.0 | 3.0 | 0.00 | 0.00 | 0.00 | 43 | 1012.0 |
| 20260503010716 | 59 | 189 | 3.0 | 5.0 | 0.00 | 0.00 | 0.00 | 42 | 1012.1 |
| 20260503010213 | 59 | 198 | 2.0 | 3.0 | 0.00 | 0.00 | 0.00 | 42 | 1012.0 |
| 20260503005711 | 59 | 200 | 2.0 | 3.0 | 0.00 | 0.00 | 0.00 | 42 | 1012.2 |
| 20260503005208 | 59 | 182 | 2.0 | 3.0 | 0.00 | 0.00 | 0.00 | 41 | 1012.2 |
| 20260503004704 | 60 | 208 | 2.0 | 5.0 | 0.00 | 0.00 | 0.00 | 40 | 1012.1 |
| 20260503004203 | 60 | 201 | 2.0 | 2.0 | 0.00 | 0.00 | 0.00 | 40 | 1012.1 |
| 20260503003700 | 60 | 189 | 3.0 | 3.0 | 0.00 | 0.00 | 0.00 | 40 | 1012.2 |
| 20260503003156 | 60 | 204 | 1.0 | 2.0 | 0.00 | 0.00 | 0.00 | 39 | 1012.1 |
| 20260503002653 | 60 | 226 | 1.0 | 2.0 | 0.00 | 0.00 | 0.00 | 39 | 1012.2 |
| 20260503002150 | 61 | 211 | 2.0 | 2.0 | 0.00 | 0.00 | 0.00 | 39 | 1012.2 |
| 20260503001646 | 60 | 231 | 4.0 | 7.0 | 0.00 | 0.00 | 0.00 | 38 | 1012.3 |
| 20260503001143 | 61 | 254 | 4.0 | 7.0 | 0.00 | 0.00 | 0.00 | 38 | 1012.5 |
| 20260503000641 | 61 | 219 | 3.0 | 5.0 | 0.00 | 0.00 | 0.00 | 38 | 1012.3 |
| 20260503000138 | 61 | 226 | 3.0 | 8.0 | 0.00 | 0.00 | 0.00 | 38 | 1012.6 |
| 20260502235634 | 61 | 249 | 5.0 | 7.0 | 0.00 | 0.00 | 0.00 | 38 | 1012.5 |
| 20260502235133 | 61 | 253 | 6.0 | 10.0 | 0.00 | 0.00 | 0.00 | 38 | 1012.5 |
| 20260502234628 | 61 | 263 | 5.0 | 7.0 | 0.00 | 0.00 | 0.00 | 38 | 1012.6 |
| 20260502234126 | 61 | 232 | 4.0 | 7.0 | 0.00 | 0.00 | 0.00 | 38 | 1012.6 |
| 20260502233621 | 61 | 251 | 4.0 | 5.0 | 0.00 | 0.00 | 0.00 | 37 | 1012.6 |
| 20260502233118 | 61 | 270 | 6.0 | 8.0 | 0.00 | 0.00 | 0.00 | 37 | 1012.8 |
| 20260502232614 | 61 | 297 | 7.0 | 8.0 | 0.00 | 0.00 | 0.00 | 37 | 1013.1 |
| 20260502232112 | 61 | 228 | 3.0 | 8.0 | 0.00 | 0.00 | 0.00 | 37 | 1013.0 |
| 20260502231608 | 61 | 258 | 5.0 | 11.0 | 0.00 | 0.00 | 0.00 | 37 | 1013.0 |
| 20260502231107 | 61 | 235 | 12.0 | 15.0 | 0.00 | 0.00 | 0.00 | 37 | 1012.9 |
| 20260502230604 | 61 | 283 | 7.0 | 11.0 | 0.00 | 0.00 | 0.00 | 37 | 1013.0 |
| 20260502225558 | 61 | 268 | 7.0 | 9.0 | 0.00 | 0.00 | 0.00 | 37 | 1013.2 |
| 20260502225055 | 61 | 276 | 5.0 | 11.0 | 0.00 | 0.00 | 0.00 | 37 | 1013.4 |
| 20260502224551 | 61 | 266 | 7.0 | 16.0 | 0.00 | 0.00 | 0.00 | 37 | 1013.4 |
| 20260502224048 | 61 | 285 | 8.0 | 14.0 | 0.00 | 0.00 | 0.00 | 36 | 1013.3 |
| 20260502223546 | 62 | 301 | 10.0 | 17.0 | 0.00 | 0.00 | 0.00 | 37 | 1013.4 |
| 20260502223045 | 62 | 241 | 8.0 | 13.0 | 0.00 | 0.00 | 0.00 | 36 | 1013.4 |
| 20260502222541 | 62 | 272 | 12.0 | 17.0 | 0.00 | 0.00 | 0.00 | 36 | 1013.4 |
| 20260502222037 | 61 | 274 | 11.0 | 14.0 | 0.00 | 0.00 | 0.00 | 36 | 1013.3 |
| 20260502221533 | 62 | 275 | 5.0 | 18.0 | 0.00 | 0.00 | 0.00 | 36 | 1013.3 |
| 20260502221031 | 61 | 292 | 7.0 | 10.0 | 0.00 | 0.00 | 0.00 | 36 | 1013.4 |
| 20260502220526 | 61 | 266 | 6.0 | 8.0 | 0.00 | 0.00 | 0.00 | 36 | 1013.8 |
| 20260502220024 | 61 | 216 | 6.0 | 14.0 | 0.00 | 0.00 | 0.00 | 37 | 1013.4 |
| 20260502215521 | 60 | 280 | 12.0 | 16.0 | 0.00 | 0.00 | 0.00 | 37 | 1013.5 |
| 20260502215017 | 61 | 323 | 12.0 | 15.0 | 0.00 | 0.00 | 0.00 | 36 | 1013.5 |
| 20260502214514 | 62 | 304 | 10.0 | 10.0 | 0.00 | 0.00 | 0.00 | 35 | 1013.7 |
| 20260502214012 | 62 | 268 | 9.0 | 11.0 | 0.00 | 0.00 | 0.00 | 35 | 1013.7 |
| 20260502213508 | 61 | 254 | 10.0 | 15.0 | 0.00 | 0.00 | 0.00 | 36 | 1013.8 |
| 20260502213007 | 61 | 278 | 12.0 | 16.0 | 0.00 | 0.00 | 0.00 | 35 | 1014.0 |
| 20260502212505 | 62 | 210 | 4.0 | 8.0 | 0.00 | 0.00 | 0.00 | 35 | 1014.1 |
| 20260502212002 | 61 | 281 | 8.0 | 10.0 | 0.00 | 0.00 | 0.00 | 35 | 1014.2 |